Home > Weather > Kawasaki > Past weeks

Flag for Japan Past Weather in Kawasaki, Japan — Yesterday and Last 2 Weeks

Now
77 °F

Passing clouds.


Feels Like: 78 °F
Forecast: 78 / 86 °F
Wind: 6 mph from Southeast

Location: Tokyo International Airport

Current Time: Aug 25, 2016 at 3:12:24 AM

Latest Report: Aug 25, 2016 at 2:30 AM


Visibility: N/A

Pressure: 29.80 "Hg

Humidity: 94%

Dew Point: 75 °F

Location of KawasakiLocation

Past Weather in Kawasaki — Graph

°F

Kawasaki Temperature Yesterday

Maximum temperature yesterday: 86 °F (at 12:30 PM)
Minimum temperature yesterday: 75 °F (at 2:30 AM)
Average temperature yesterday: 80 °F

High & Low Weather Summary for the Past Weeks

 TemperatureHumidityPressure
High93 °F (Aug 17, 11:00 AM)100% (Aug 16, 9:00 PM)29.86 "Hg (Aug 16, 9:00 PM)
Low75 °F (Aug 13, 2:00 AM)55% (Aug 12, 2:00 PM)29.00 "Hg (Aug 22, 1:48 PM)
Average81 °F81%29.67 "Hg
* Reported Aug 10 2:00 AM — Aug 25 2:00 AM, Kawasaki, Weather by CustomWeather, © 2016

Note: Actual official high and low records may vary slightly from our data, if they occured in-between our weather recording intervals... More about our weather records

Advertising

Kawasaki Weather History for the Previous 24 Hours

Scroll right to see more
 ConditionsComfort  
Time TempWeatherWind HumidityBarometerVisibility
2:00 AM
Thu, Aug 25
77 °FPassing clouds.7 mph94%29.77 "HgN/A
1:30 AM77 °FPassing clouds.8 mph94%29.80 "HgN/A
1:00 AM77 °FPassing clouds.5 mph94%29.80 "HgN/A
12:30 AM77 °FPassing clouds.6 mph94%29.80 "HgN/A
12:00 AM79 °FPassing clouds.9 mph89%29.80 "HgN/A
11:30 PM
Wed, Aug 24
79 °FPassing clouds.10 mph89%29.80 "HgN/A
11:00 PM79 °FPassing clouds.9 mph94%29.83 "HgN/A
10:30 PM79 °FPassing clouds.9 mph94%29.83 "HgN/A
10:00 PM79 °FPassing clouds.10 mph94%29.83 "HgN/A
9:30 PM79 °FPassing clouds.9 mph94%29.80 "HgN/A
9:00 PM81 °FPassing clouds.12 mph89%29.80 "HgN/A
8:30 PM81 °FPassing clouds.10 mph84%29.80 "HgN/A
8:00 PM82 °FPassing clouds.12 mph84%29.80 "HgN/A
7:30 PM82 °FPassing clouds.12 mph79%29.80 "HgN/A
7:00 PM82 °FPassing clouds.10 mph79%29.77 "HgN/A
6:30 PM82 °FPassing clouds.14 mph79%29.77 "HgN/A
6:00 PM82 °FScattered clouds.13 mph79%29.74 "HgN/A
5:30 PM84 °FScattered clouds.14 mph74%29.74 "HgN/A
5:00 PM84 °FScattered clouds.13 mph70%29.74 "HgN/A
4:30 PM84 °FScattered clouds.13 mph74%29.74 "HgN/A
4:00 PM84 °FScattered clouds.12 mph74%29.74 "HgN/A
3:30 PM84 °FScattered clouds.9 mph84%29.74 "HgN/A
3:00 PM82 °FPartly sunny.10 mph89%29.74 "HgN/A
2:30 PM82 °FScattered showers. Partly sunny.14 mph84%29.74 "HgN/A
2:00 PM82 °FScattered showers. Scattered clouds.13 mph79%29.74 "HgN/A
1:30 PM82 °FScattered showers. Broken clouds.15 mph79%29.74 "HgN/A
1:00 PM86 °FPartly sunny.8 mph75%29.77 "HgN/A
12:30 PM86 °FScattered clouds.8 mph75%29.77 "HgN/A
12:00 PM84 °FPartly sunny.5 mph74%29.77 "HgN/A
11:30 AM84 °FScattered clouds.3 mph79%29.77 "HgN/A
11:00 AM82 °FScattered clouds.2 mph79%29.77 "HgN/A
10:30 AM82 °FScattered clouds.2 mph79%29.80 "HgN/A
10:00 AM82 °FScattered clouds.3 mph79%29.80 "HgN/A
9:30 AM81 °FScattered clouds.5 mph84%29.80 "HgN/A
9:00 AM81 °FScattered clouds.3 mph84%29.80 "HgN/A
8:30 AM79 °FBroken clouds.3 mph84%29.80 "HgN/A
8:00 AM79 °FBroken clouds.3 mph89%29.80 "HgN/A
7:30 AM77 °FBroken clouds.5 mph89%29.80 "HgN/A
7:00 AM77 °FPartly sunny.3 mph89%29.80 "HgN/A
6:30 AM77 °FBroken clouds.5 mph89%29.77 "HgN/A
6:00 AM75 °FBroken clouds.7 mph94%29.77 "HgN/A
5:30 AM75 °FPartly sunny.10 mph94%29.77 "HgN/A
5:00 AM75 °FPassing clouds.8 mph94%29.77 "HgN/A
4:30 AM75 °FPassing clouds.8 mph94%29.74 "HgN/A
4:00 AM75 °FPassing clouds.7 mph94%29.74 "HgN/A
3:30 AM75 °FPassing clouds.9 mph94%29.74 "HgN/A
3:00 AM77 °FPassing clouds.6 mph89%29.74 "HgN/A
Weather by CustomWeather, © 2016

See weather overviewHow to use our weather pages